This demonstration page uses our WeatherBlox Daily Observations layout. Learn more.

Left ArrowRight Arrow

39.01783, -85.05884

Hourly Observations for August 31, 2017

Temp ( °F °C ) Dew Point ( °F °C ) Humidity (%) Winds ( mph kmh ) Pressure ( in mb ) Visibility ( mi km ) Precip ( " mm )
12:52 am 00:52 Mostly Cloudy 65 18.3 65 18.3 100 100 S 3 6 30.02 1017 9 14 0.00 0.00
1:52 am 01:52 Mostly Cloudy 66 18.9 64 17.8 93 93 Calm 30.02 1017 10 16 0.00 0.00
2:52 am 02:52 Cloudy 64 17.8 64 17.8 100 100 Calm 30.02 1017 8 13 0.00 0.00
3:52 am 03:52 Cloudy 64 17.8 64 17.8 100 100 Calm 30.02 1017 8 13 0.00 0.00
4:52 am 04:52 Cloudy with Mist and Fog 65 18.3 65 18.3 100 100 NNW 3 6 30.01 1016 6 10 0.00 0.00
5:52 am 05:52 Cloudy 63 17.2 63 17.2 100 100 Calm 30.03 1017 9 14 0.00 0.00
6:52 am 06:52 Cloudy 65 18.3 64 17.8 97 97 NNW 7 11 30.04 1017 9 14 0.00 0.00
7:52 am 07:52 Cloudy with Mist and Fog 66 18.9 66 18.9 100 100 NNW 5 7 30.05 1018 5 8 0.00 0.00
8:52 am 08:52 Cloudy with Mist and Fog 67 19.4 66 18.9 97 97 Calm 30.06 1018 6 10 0.00 0.00
9:52 am 09:52 Mostly Cloudy 71 21.7 66 18.9 84 84 ENE 5 7 30.06 1018 7 11 0.00 0.00
10:52 am 10:52 Cloudy 74 23.3 66 18.9 76 76 Calm 30.06 1018 8 13 0.00 0.00
11:52 am 11:52 Mostly Cloudy 76 24.4 66 18.9 72 72 VRB 5 7 30.05 1018 9 14 0.00 0.00
12:52 pm 12:52 Mostly Cloudy 79 26.1 65 18.3 62 62 VRB 5 7 30.04 1017 10 16 0.00 0.00
1:52 pm 13:52 Mostly Cloudy 80 26.7 65 18.3 60 60 Calm 30.02 1017 10 16 0.00 0.00
2:52 pm 14:52 Mostly Cloudy 80 26.7 64 17.8 58 58 VRB 3 6 30.01 1016 10 16 0.00 0.00
3:52 pm 15:52 Mostly Cloudy 81 27.2 66 18.9 61 61 N 10 17 29.98 1015 10 16 0.00 0.00
4:52 pm 16:52 Mostly Cloudy 82 27.8 64 17.8 55 55 NNE 10 17 29.97 1015 10 16 0.00 0.00
5:52 pm 17:52 Mostly Cloudy 82 27.8 63 17.2 53 53 N 12 19 29.97 1015 10 16 0.00 0.00
6:52 pm 18:52 Mostly Cloudy 79 26.1 62 16.7 56 56 NE 12 19 29.97 1015 10 16 0.00 0.00
7:52 pm 19:52 Cloudy 78 25.6 63 17.2 60 60 NE 12 19 29.98 1015 10 16 0.00 0.00
8:52 pm 20:52 Cloudy 76 24.4 63 17.2 64 64 ENE 16 26 29.98 1015 10 16 0.00 0.00
9:52 pm 21:52 Cloudy 73 22.8 64 17.8 74 74 ENE 17 28 29.98 1015 10 16 0.00 0.00
10:52 pm 22:52 Cloudy 69 20.6 61 16.1 76 76 NE 18 30 30.00 1016 10 16 0.00 0.00
11:52 pm 23:52 Cloudy 68 20 60 15.6 76 76 NE 18 30 30.03 1017 10 16 0.00 0.00

Powered by AerisWeather